FW3353 Weather Reports


Display with metric or nautical units.
time (UTC)temp
F
wind
direction
speed
MPH
gust
MPH
rain 1hr
in
rain 24hr
in
rain mn
in
humidity
%
barometer
mb
20260508011524 50 280 2.0 4.0 0.00 0.00 0.00 87 1012.9
20260508011003 50 278 2.0 4.0 0.00 0.00 0.00 87 1012.9
20260508010503 50 275 1.0 3.0 0.00 0.00 0.00 87 1012.9
20260508010024 50 275 1.0 3.0 0.00 0.00 0.00 86 1012.9
20260508005503 50 271 1.0 4.0 0.00 0.00 0.00 86 1012.9
20260508005024 50 264 1.0 5.0 0.00 0.00 0.00 86 1013.0
20260508004503 50 264 2.0 5.0 0.00 0.00 0.00 86 1012.9
20260508004003 50 269 1.0 4.0 0.00 0.00 0.00 85 1012.9
20260508003503 50 272 1.0 3.0 0.00 0.00 0.00 85 1012.9
20260508003004 50 267 2.0 7.0 0.00 0.00 0.00 85 1012.9
20260508002503 50 267 2.0 7.0 0.00 0.00 0.00 85 1012.9
20260508002003 50 263 2.0 5.0 0.00 0.00 0.00 84 1012.9
20260508001503 51 259 2.0 5.0 0.00 0.00 0.00 84 1012.9
20260508001003 51 261 2.0 6.0 0.00 0.00 0.00 84 1012.8
20260508000524 51 260 3.0 6.0 0.00 0.00 0.00 84 1012.8
20260508000024 51 259 2.0 5.0 0.00 0.00 0.00 84 1012.8
20260507235524 51 252 2.0 5.0 0.00 0.00 0.00 84 1012.8
20260507235003 51 251 2.0 5.0 0.00 0.00 0.00 83 1012.7
20260507234503 51 249 2.0 5.0 0.00 0.00 0.00 83 1012.7
20260507234003 51 247 2.0 5.0 0.00 0.00 0.00 83 1012.7
20260507233503 51 252 2.0 5.0 0.00 0.00 0.00 84 1012.7
20260507233003 51 261 1.0 3.0 0.00 0.00 0.00 84 1012.6
20260507232524 51 266 1.0 3.0 0.00 0.00 0.00 84 1012.5
20260507232003 51 270 1.0 2.0 0.00 0.00 0.00 84 1012.4
20260507231524 51 271 1.0 2.0 0.00 0.00 0.00 84 1012.3
20260507231003 51 271 1.0 2.0 0.00 0.00 0.00 84 1012.3
20260507230524 51 271 0.0 2.0 0.00 0.00 0.00 84 1012.3
20260507230024 51 271 0.0 1.0 0.00 0.00 0.00 84 1012.2
20260507225503 51 0 0.0 0.0 0.00 0.00 0.00 84 1012.2
20260507225003 51 0 0.0 0.0 0.00 0.00 0.00 84 1012.3
20260507224504 52 0 0.0 0.0 0.00 0.00 0.00 84 1012.2
20260507224003 52 0 0.0 0.0 0.00 0.00 0.00 84 1012.1
20260507223503 52 0 0.0 0.0 0.00 0.00 0.00 84 1012.1
20260507223024 52 0 0.0 0.0 0.00 0.00 0.00 84 1012.1
20260507222503 52 0 0.0 0.0 0.00 0.00 0.00 84 1012.0
20260507222003 52 0 0.0 0.0 0.00 0.00 0.00 84 1012.0
20260507221503 52 0 0.0 0.0 0.00 0.00 0.00 83 1012.1
20260507221003 52 0 0.0 0.0 0.00 0.00 0.00 83 1012.1
20260507220503 52 0 0.0 0.0 0.00 0.00 0.00 83 1012.1
20260507220024 52 0 0.0 0.0 0.00 0.00 0.00 82 1012.1
20260507215503 52 0 0.0 0.0 0.00 0.00 0.00 83 1012.1
20260507215003 52 0 0.0 0.0 0.00 0.00 0.00 82 1012.0
20260507214503 53 0 0.0 0.0 0.00 0.00 0.00 82 1012.0
20260507214003 53 0 0.0 0.0 0.00 0.00 0.00 82 1012.0
20260507213524 53 0 0.0 0.0 0.00 0.00 0.00 82 1011.9
20260507213024 53 0 0.0 0.0 0.00 0.00 0.00 82 1011.9
20260507212503 53 0 0.0 0.0 0.00 0.00 0.00 82 1011.8
20260507212024 53 273 0.0 1.0 0.00 0.00 0.00 81 1011.8
20260507211503 53 273 0.0 1.0 0.00 0.00 0.00 81 1011.8
20260507211003 53 273 0.0 1.0 0.00 0.00 0.00 81 1011.8
20260507210503 54 273 0.0 1.0 0.00 0.00 0.00 81 1011.8
20260507210004 54 273 0.0 1.0 0.00 0.00 0.00 80 1011.8
20260507205503 54 272 1.0 3.0 0.00 0.00 0.00 80 1011.7
20260507205003 54 273 1.0 3.0 0.00 0.00 0.00 80 1011.6
20260507204503 54 280 1.0 4.0 0.00 0.00 0.00 79 1011.6
20260507204003 54 285 1.0 4.0 0.00 0.00 0.00 79 1011.5
20260507203503 54 275 2.0 5.0 0.00 0.00 0.00 79 1011.5
20260507203003 54 264 2.0 5.0 0.00 0.00 0.00 78 1011.4
20260507202503 54 254 2.0 5.0 0.00 0.00 0.00 77 1011.4
20260507202024 54 241 3.0 8.0 0.00 0.00 0.00 76 1011.3
20260507201503 55 231 4.0 12.0 0.00 0.00 0.00 76 1011.2
20260507201003 55 232 3.0 12.0 0.00 0.00 0.00 76 1011.1
20260507200503 55 241 1.0 5.0 0.00 0.00 0.00 76 1011.0
20260507200003 55 242 1.0 2.0 0.00 0.00 0.00 76 1010.9
20260507195503 55 242 1.0 2.0 0.00 0.00 0.00 76 1010.8
20260507195003 55 241 1.0 2.0 0.00 0.00 0.00 76 1010.9
20260507194503 55 241 1.0 4.0 0.00 0.00 0.00 77 1010.9
20260507194003 55 243 2.0 5.0 0.00 0.00 0.00 77 1010.8
20260507193503 55 245 1.0 5.0 0.00 0.00 0.00 78 1010.8
20260507193003 56 229 2.0 5.0 0.00 0.00 0.00 79 1010.7
20260507192503 56 214 2.0 5.0 0.00 0.00 0.00 80 1010.7
20260507192003 56 199 2.0 5.0 0.00 0.00 0.00 80 1010.7
20260507191524 56 203 2.0 5.0 0.00 0.00 0.00 80 1010.7
20260507191024 56 214 2.0 5.0 0.00 0.00 0.00 79 1010.7
20260507190503 56 239 1.0 3.0 0.00 0.00 0.00 79 1010.7
20260507190004 56 233 1.0 3.0 0.00 0.00 0.00 78 1010.6
20260507185503 57 210 2.0 5.0 0.00 0.00 0.00 78 1010.6
20260507185003 57 212 2.0 5.0 0.00 0.00 0.00 78 1010.5
20260507184504 57 208 2.0 4.0 0.00 0.00 0.00 78 1010.5
20260507184003 57 224 2.0 4.0 0.00 0.00 0.00 79 1010.5
20260507183503 56 204 2.0 4.0 0.00 0.00 0.00 79 1010.4
20260507183003 56 208 2.0 4.0 0.00 0.00 0.00 78 1010.4
20260507182503 56 236 2.0 4.0 0.00 0.00 0.00 79 1010.4
20260507182003 56 226 2.0 4.0 0.00 0.00 0.00 79 1010.4
20260507181503 56 207 2.0 4.0 0.00 0.00 0.00 81 1010.4
20260507181003 56 162 2.0 4.0 0.00 0.00 0.00 80 1010.5
20260507180503 56 84 2.0 4.0 0.00 0.00 0.00 79 1010.5
20260507180003 55 84 2.0 4.0 0.00 0.00 0.00 80 1010.5
20260507175503 55 73 3.0 4.0 0.00 0.00 0.00 80 1010.4
20260507175003 55 97 2.0 5.0 0.00 0.00 0.00 80 1010.5
20260507174503 55 146 2.0 5.0 0.00 0.00 0.00 79 1010.5
20260507174024 55 295 1.0 4.0 0.00 0.00 0.00 79 1010.5
20260507173524 55 296 1.0 3.0 0.00 0.00 0.00 79 1010.7
20260507173024 55 289 0.0 3.0 0.00 0.00 0.00 79 1010.6
20260507172503 55 0 0.0 0.0 0.00 0.00 0.00 79 1010.6
20260507172003 55 285 0.0 2.0 0.00 0.00 0.00 81 1010.7
20260507171503 55 281 0.0 2.0 0.00 0.00 0.00 82 1010.7
20260507171003 55 277 0.0 1.0 0.00 0.00 0.00 81 1010.7
20260507170503 54 276 0.0 1.0 0.00 0.00 0.00 81 1010.6
20260507170003 54 271 1.0 6.0 0.00 0.00 0.00 81 1010.7
20260507165503 54 258 2.0 6.0 0.00 0.00 0.00 82 1010.8
20260507165024 55 224 3.0 8.0 0.00 0.00 0.00 84 1010.7
20260507164503 55 214 4.0 8.0 0.00 0.00 0.00 84 1010.8
20260507164003 56 202 3.0 7.0 0.00 0.00 0.00 82 1010.7
20260507163503 56 191 4.0 8.0 0.00 0.00 0.00 82 1010.6
20260507163003 56 181 4.0 9.0 0.00 0.00 0.00 81 1010.5
20260507162503 56 162 4.0 9.0 0.00 0.00 0.00 80 1010.6
20260507162003 57 154 5.0 10.0 0.00 0.00 0.00 79 1010.5
20260507161524 57 158 5.0 11.0 0.00 0.00 0.00 78 1010.5
20260507161003 57 180 5.0 11.0 0.00 0.00 0.00 77 1010.6
20260507160503 58 201 5.0 10.0 0.00 0.00 0.00 77 1010.5
20260507160003 58 209 4.0 9.0 0.00 0.00 0.00 77 1010.6
20260507155503 57 207 4.0 8.0 0.00 0.00 0.00 77 1010.6
20260507155003 56 199 4.0 8.0 0.00 0.00 0.00 77 1010.6
20260507154503 56 193 3.0 8.0 0.00 0.00 0.00 78 1010.7
20260507154024 56 185 4.0 8.0 0.00 0.00 0.00 79 1010.7
20260507153504 55 176 4.0 11.0 0.00 0.00 0.00 80 1010.7
20260507153003 55 187 4.0 11.0 0.00 0.00 0.00 80 1010.7
20260507152503 55 205 4.0 9.0 0.00 0.00 0.00 80 1010.7
20260507152003 55 195 3.0 9.0 0.00 0.00 0.00 81 1010.8
20260507151503 55 166 3.0 8.0 0.00 0.00 0.00 82 1010.8
20260507151024 55 167 4.0 9.0 0.00 0.00 0.00 82 1010.9
20260507150524 55 178 4.0 9.0 0.00 0.00 0.00 82 1010.9
20260507150024 55 172 5.0 11.0 0.00 0.00 0.00 82 1011.0
20260507145503 55 164 5.0 12.0 0.00 0.00 0.00 82 1010.9
20260507145003 55 169 5.0 12.0 0.00 0.00 0.00 82 1011.0
20260507144503 55 168 5.0 12.0 0.00 0.00 0.00 82 1011.0
20260507144003 55 160 5.0 12.0 0.00 0.00 0.00 82 1011.1
20260507143503 55 150 5.0 11.0 0.00 0.00 0.00 81 1011.2
20260507143025 55 159 5.0 11.0 0.00 0.00 0.00 81 1011.1
20260507142524 55 167 5.0 11.0 0.00 0.00 0.00 81 1011.2
20260507142003 55 147 5.0 12.0 0.00 0.00 0.00 81 1011.3
20260507141524 54 141 5.0 12.0 0.00 0.00 0.00 81 1011.3
20260507141024 54 137 5.0 12.0 0.00 0.00 0.00 81 1011.4
20260507140503 54 155 5.0 12.0 0.00 0.00 0.00 81 1011.4
20260507140003 54 162 5.0 12.0 0.00 0.00 0.00 81 1011.4
20260507135524 54 151 6.0 14.0 0.00 0.00 0.00 81 1011.5
20260507135003 54 152 6.0 14.0 0.00 0.00 0.00 80 1011.4
20260507134503 54 150 6.0 15.0 0.00 0.00 0.00 79 1011.5
20260507134004 54 148 6.0 15.0 0.00 0.00 0.00 79 1011.4
20260507133503 54 144 6.0 15.0 0.00 0.00 0.00 78 1011.4
20260507133003 55 141 6.0 15.0 0.00 0.00 0.00 76 1011.3
20260507132503 55 141 6.0 13.0 0.00 0.00 0.00 75 1011.4
20260507132003 55 141 7.0 13.0 0.00 0.00 0.00 74 1011.4
20260507131503 55 136 7.0 13.0 0.00 0.00 0.00 75 1011.5
20260507131024 55 135 6.0 13.0 0.00 0.00 0.00 74 1011.5
20260507130503 56 148 6.0 15.0 0.00 0.00 0.00 73 1011.5
20260507130004 56 151 7.0 16.0 0.00 0.00 0.00 73 1011.5
20260507125503 55 140 8.0 16.0 0.00 0.00 0.00 72 1011.5
20260507125004 56 132 9.0 15.0 0.00 0.00 0.00 72 1011.6
20260507124504 56 126 8.0 15.0 0.00 0.00 0.00 72 1011.6
20260507124003 57 132 6.0 15.0 0.00 0.00 0.00 67 1011.6
20260507123503 56 144 6.0 13.0 0.00 0.00 0.00 71 1011.6
20260507123003 56 140 6.0 13.0 0.00 0.00 0.00 70 1011.7
20260507122503 56 159 6.0 13.0 0.00 0.00 0.00 71 1011.7
20260507122024 56 189 4.0 13.0 0.00 0.00 0.00 71 1011.8
20260507121503 57 215 4.0 12.0 0.00 0.00 0.00 70 1011.8
20260507121003 56 213 6.0 12.0 0.00 0.00 0.00 70 1011.8
20260507120524 56 214 6.0 12.0 0.00 0.00 0.00 69 1011.9
20260507120004 56 219 4.0 11.0 0.00 0.00 0.00 70 1011.9
20260507115503 56 212 5.0 10.0 0.00 0.00 0.00 72 1011.8
20260507115003 56 199 6.0 15.0 0.00 0.00 0.00 71 1011.8
20260507114524 57 205 6.0 15.0 0.00 0.00 0.00 71 1011.8
20260507114003 57 218 5.0 14.0 0.00 0.00 0.00 73 1011.8
20260507113503 56 215 7.0 14.0 0.00 0.00 0.00 72 1011.8
20260507113004 57 206 7.0 13.0 0.00 0.00 0.00 73 1011.8
20260507112503 57 200 6.0 13.0 0.00 0.00 0.00 73 1011.8
20260507112003 56 203 6.0 13.0 0.00 0.00 0.00 73 1011.9
20260507111504 56 209 5.0 12.0 0.00 0.00 0.00 73 1011.9
20260507111003 56 206 5.0 10.0 0.00 0.00 0.00 75 1011.9
20260507110503 55 200 5.0 10.0 0.00 0.00 0.00 76 1012.0
20260507110004 55 209 4.0 10.0 0.00 0.00 0.00 77 1012.0
20260507105504 55 205 4.0 9.0 0.00 0.00 0.00 77 1012.0
20260507105004 55 210 4.0 10.0 0.00 0.00 0.00 78 1012.1
20260507104504 55 216 5.0 10.0 0.00 0.00 0.00 78 1012.1
20260507104004 54 209 5.0 9.0 0.00 0.00 0.00 78 1012.1
20260507103503 54 209 5.0 10.0 0.00 0.00 0.00 79 1012.1
20260507103003 54 210 4.0 10.0 0.00 0.00 0.00 79 1012.2
20260507102503 54 202 4.0 9.0 0.00 0.00 0.00 80 1012.1
20260507102003 54 202 3.0 9.0 0.00 0.00 0.00 80 1012.2
20260507101503 54 213 4.0 9.0 0.00 0.00 0.00 80 1012.2
20260507101003 54 226 3.0 8.0 0.00 0.00 0.00 80 1012.2
20260507100503 53 216 3.0 6.0 0.00 0.00 0.00 81 1012.2
20260507100024 53 190 3.0 7.0 0.00 0.00 0.00 81 1012.3
20260507095503 53 209 4.0 7.0 0.00 0.00 0.00 81 1012.2
20260507095024 53 227 4.0 9.0 0.00 0.00 0.00 81 1012.2
20260507094503 53 226 4.0 9.0 0.00 0.00 0.00 82 1012.2
20260507094003 53 202 4.0 8.0 0.00 0.00 0.00 82 1012.3
20260507093525 53 203 4.0 7.0 0.00 0.00 0.00 81 1012.3
20260507093003 53 222 4.0 8.0 0.00 0.00 0.00 82 1012.3
20260507092503 53 218 4.0 9.0 0.00 0.00 0.00 81 1012.3
20260507092003 53 209 3.0 9.0 0.00 0.00 0.00 81 1012.3
20260507091524 53 218 3.0 8.0 0.00 0.00 0.00 82 1012.3
20260507091003 52 235 3.0 7.0 0.00 0.00 0.00 82 1012.3
20260507090503 52 227 3.0 7.0 0.00 0.00 0.00 83 1012.3
20260507090004 52 220 4.0 10.0 0.00 0.00 0.00 83 1012.4
20260507085503 52 221 5.0 10.0 0.00 0.00 0.00 83 1012.4
20260507085024 52 221 5.0 10.0 0.00 0.00 0.00 83 1012.4
20260507084503 52 221 5.0 10.0 0.00 0.00 0.00 83 1012.4
20260507084003 52 219 3.0 9.0 0.00 0.00 0.00 83 1012.3
20260507083503 51 227 2.0 7.0 0.00 0.00 0.00 84 1012.3
20260507083004 51 229 3.0 8.0 0.00 0.00 0.00 84 1012.4
20260507082503 51 228 3.0 8.0 0.00 0.00 0.00 84 1012.3
20260507082024 51 229 3.0 8.0 0.00 0.00 0.00 85 1012.4
20260507081503 51 229 3.0 8.0 0.00 0.00 0.00 85 1012.3
20260507081003 51 230 3.0 6.0 0.00 0.00 0.00 85 1012.4
20260507080503 50 224 4.0 7.0 0.00 0.00 0.00 85 1012.4
20260507080003 50 232 4.0 7.0 0.00 0.00 0.00 85 1012.4
20260507075503 50 234 4.0 9.0 0.00 0.00 0.00 85 1012.3
20260507075003 50 229 3.0 9.0 0.00 0.00 0.00 85 1012.3
20260507074524 50 242 2.0 7.0 0.00 0.00 0.00 86 1012.3
20260507074024 50 243 3.0 7.0 0.00 0.00 0.00 86 1012.3
20260507073524 50 239 4.0 7.0 0.00 0.00 0.00 86 1012.3
20260507073003 50 242 3.0 6.0 0.00 0.00 0.00 86 1012.3
20260507072524 50 253 2.0 5.0 0.00 0.00 0.00 86 1012.3
20260507072003 50 257 3.0 6.0 0.00 0.00 0.00 86 1012.2
20260507071504 50 253 2.0 6.0 0.00 0.00 0.00 86 1012.2
20260507071003 50 249 1.0 4.0 0.00 0.00 0.00 86 1012.2
20260507070524 50 247 1.0 3.0 0.00 0.00 0.00 87 1012.2
20260507070005 50 247 1.0 4.0 0.00 0.00 0.00 86 1012.2
20260507065503 50 249 1.0 4.0 0.00 0.00 0.00 86 1012.2
20260507065003 50 251 1.0 4.0 0.00 0.00 0.00 87 1012.2
20260507064503 49 252 1.0 3.0 0.00 0.00 0.00 87 1012.2
20260507064024 49 253 1.0 3.0 0.00 0.00 0.00 87 1012.2
20260507063503 49 254 1.0 3.0 0.00 0.00 0.00 87 1012.2
20260507063003 49 255 1.0 3.0 0.00 0.00 0.00 87 1012.2
20260507062503 49 255 1.0 3.0 0.00 0.00 0.00 87 1012.2
20260507062003 49 256 0.0 2.0 0.00 0.00 0.00 87 1012.1
20260507061503 49 256 1.0 2.0 0.00 0.00 0.00 87 1012.1
20260507061003 49 256 1.0 2.0 0.00 0.00 0.00 87 1012.2
20260507060503 49 256 0.0 2.0 0.00 0.00 0.00 88 1012.2
20260507060003 49 256 0.0 2.0 0.00 0.00 0.00 88 1012.1
20260507055503 49 256 0.0 2.0 0.00 0.00 0.00 88 1012.1
20260507055003 49 256 0.0 2.0 0.00 0.00 0.00 88 1012.1
20260507054503 49 255 0.0 2.0 0.00 0.00 0.00 88 1012.1
20260507054003 48 0 0.0 0.0 0.00 0.00 0.00 88 1012.1
20260507053503 48 0 0.0 0.0 0.00 0.00 0.00 88 1012.0
20260507053004 48 0 0.0 0.0 0.00 0.00 0.00 88 1012.0
20260507052503 48 0 0.0 0.0 0.00 0.00 0.00 88 1012.0
20260507052003 48 0 0.0 0.0 0.00 0.00 0.00 88 1011.9
20260507051524 48 0 0.0 0.0 0.00 0.00 0.00 88 1012.0
20260507051003 48 0 0.0 0.0 0.00 0.00 0.00 88 1011.9
20260507050503 48 256 0.0 1.0 0.00 0.00 0.00 88 1011.9
20260507050024 48 255 1.0 3.0 0.00 0.00 0.00 88 1011.9
20260507045503 48 254 1.0 3.0 0.00 0.00 0.00 88 1011.9
20260507045003 48 254 0.0 2.0 0.00 0.00 0.00 88 1011.9
20260507044503 48 254 0.0 2.0 0.00 0.00 0.00 87 1011.9
20260507044003 48 246 1.0 3.0 0.00 0.00 0.00 87 1011.9
20260507043503 48 241 1.0 4.0 0.00 0.00 0.00 87 1011.9
20260507043003 48 238 1.0 4.0 0.00 0.00 0.00 87 1011.8
20260507042503 48 239 1.0 4.0 0.00 0.00 0.00 87 1011.8
20260507042003 48 248 1.0 4.0 0.00 0.00 0.00 87 1011.7
20260507041503 48 264 0.0 3.0 0.00 0.00 0.00 87 1011.7
20260507041003 49 265 0.0 3.0 0.00 0.00 0.00 87 1011.7
20260507040503 49 265 0.0 1.0 0.00 0.00 0.00 87 1011.7
20260507040003 49 265 0.0 1.0 0.00 0.00 0.00 87 1011.6
20260507035503 49 265 0.0 1.0 0.00 0.00 0.00 87 1011.7
20260507035003 49 265 0.0 2.0 0.00 0.00 0.00 87 1011.7
20260507034524 49 265 1.0 3.0 0.00 0.00 0.00 86 1011.7
20260507034003 49 265 1.0 3.0 0.00 0.00 0.00 86 1011.6
20260507033503 49 266 0.0 2.0 0.00 0.00 0.00 86 1011.7
20260507033024 49 266 1.0 3.0 0.00 0.00 0.00 86 1011.6
20260507032503 49 263 1.0 3.0 0.00 0.00 0.00 86 1011.7
20260507032003 49 261 1.0 4.0 0.00 0.00 0.00 86 1011.7
20260507031503 49 260 1.0 5.0 0.00 0.00 0.00 86 1011.7
20260507031024 49 260 0.0 5.0 0.00 0.00 0.00 86 1011.7
20260507030503 49 259 0.0 1.0 0.00 0.00 0.00 86 1011.6
20260507030003 49 259 0.0 1.0 0.00 0.00 0.00 85 1011.7
20260507025524 49 259 1.0 3.0 0.00 0.00 0.00 85 1011.7
20260507025024 49 259 1.0 3.0 0.00 0.00 0.00 85 1011.7
20260507024503 49 245 1.0 4.0 0.00 0.00 0.00 85 1011.7
20260507024024 49 243 1.0 4.0 0.00 0.00 0.00 85 1011.8
20260507023503 49 246 1.0 3.0 0.00 0.00 0.00 85 1011.8
20260507023003 49 247 1.0 3.0 0.00 0.00 0.00 85 1011.8
20260507022524 50 247 1.0 3.0 0.00 0.00 0.00 85 1011.7
20260507022003 49 248 1.0 3.0 0.00 0.00 0.00 85 1011.7
20260507021503 49 254 1.0 3.0 0.00 0.00 0.00 85 1011.7
20260507021024 49 266 1.0 3.0 0.00 0.00 0.00 85 1011.7
20260507020503 49 260 0.0 2.0 0.00 0.00 0.00 85 1011.7
20260507020003 49 227 1.0 4.0 0.00 0.00 0.00 85 1011.7
20260507015503 49 257 1.0 4.0 0.00 0.00 0.00 85 1011.7
20260507015004 50 282 1.0 4.0 0.00 0.00 0.00 85 1011.7
20260507014504 50 261 1.0 3.0 0.00 0.00 0.00 85 1011.7
20260507014003 50 261 0.0 2.0 0.00 0.00 0.00 85 1011.8
20260507013524 50 275 0.0 2.0 0.00 0.00 0.00 85 1011.8
20260507013004 50 294 1.0 2.0 0.00 0.00 0.00 84 1011.8
20260507012503 50 308 1.0 2.0 0.00 0.00 0.00 84 1011.9
20260507012003 50 310 1.0 2.0 0.00 0.00 0.00 84 1011.9